timestamp,surface_pressure_avg,surface_temp_avg,battery_voltage,lat,long
2018-03-12 00:00:00+00:00,236.0031,1.4,12.89,47.84626,-54.09684
2018-03-12 00:10:00+00:00,230.8914,1.4,12.81,47.84626,-54.09684
2018-03-12 00:20:00+00:00,231.1681,1.4,12.89,47.84626,-54.09684
2018-03-12 00:30:00+00:00,232.583,1.4,12.89,47.84626,-54.09684
2018-03-12 00:40:00+00:00,232.1348,1.4,12.89,47.84626,-54.09684
2018-03-12 00:50:00+00:00,233.7864,1.4,12.97,47.84626,-54.09684
2018-03-12 01:00:00+00:00,236.9848,1.4,12.89,47.84626,-54.09684
2018-03-12 01:10:00+00:00,237.0564,1.4,12.81,47.84626,-54.09684
2018-03-12 01:20:00+00:00,237.148,1.4,12.89,47.84626,-54.09684
2018-03-12 01:30:00+00:00,237.5947,1.4,12.89,47.84626,-54.09684
2018-03-12 01:40:00+00:00,236.3848,1.4,12.89,47.84626,-54.09684
2018-03-12 01:50:00+00:00,235.2364,1.4,12.89,47.84626,-54.09684
2018-03-12 02:00:00+00:00,237.5031,1.4,12.81,47.84626,-54.09684
2018-03-12 02:10:00+00:00,237.8881,1.4,12.81,47.84626,-54.09684
2018-03-12 02:20:00+00:00,238.0264,1.4,12.89,47.84626,-54.09684
2018-03-12 02:30:00+00:00,239.8047,1.4,12.89,47.84626,-54.09684
2018-03-12 02:40:00+00:00,242.3897,1.4,12.89,47.84626,-54.09684
2018-03-12 02:50:00+00:00,244.7431,1.4,12.89,47.84626,-54.09684
2018-03-12 03:00:00+00:00,245.218,1.4,12.81,47.84626,-54.09684
2018-03-12 03:10:00+00:00,249.6047,1.4,12.81,47.84626,-54.09684
2018-03-12 03:20:00+00:00,252.0214,1.4,12.89,47.84626,-54.09684
2018-03-12 03:30:00+00:00,251.5581,1.4,12.89,47.84626,-54.09684
2018-03-12 03:40:00+00:00,250.2547,1.4,12.89,47.84626,-54.09684
2018-03-12 03:50:00+00:00,255.8564,1.4,12.89,47.84626,-54.09684
2018-03-12 04:00:00+00:00,258.2314,1.4,12.81,47.84626,-54.09684
2018-03-12 04:10:00+00:00,258.8481,1.4,12.73,47.84626,-54.09684
2018-03-12 04:20:00+00:00,261.5331,1.4,12.81,47.84626,-54.09684
2018-03-12 04:30:00+00:00,269.5714,1.3,12.81,47.84626,-54.09684
2018-03-12 04:40:00+00:00,272.5048,1.32,12.89,47.84626,-54.09684
2018-03-12 04:50:00+00:00,273.8297,1.35,12.89,47.84626,-54.09684
2018-03-12 05:00:00+00:00,277.3481,1.3,12.81,47.84626,-54.09684
2018-03-12 05:10:00+00:00,283.7563,1.29,12.73,47.84626,-54.09684
2018-03-12 05:20:00+00:00,285.7147,1.3,12.81,47.84626,-54.09684
2018-03-12 05:30:00+00:00,287.8697,1.3,12.81,47.84626,-54.09684
2018-03-12 05:40:00+00:00,291.8663,1.28,12.81,47.84626,-54.09684
2018-03-12 05:50:00+00:00,296.3231,1.28,12.81,47.84626,-54.09684
2018-03-12 06:00:00+00:00,298.6481,1.27,12.81,47.84626,-54.09684
2018-03-12 06:10:00+00:00,302.4264,1.26,12.73,47.84626,-54.09684
2018-03-12 06:20:00+00:00,308.5131,1.24,12.81,47.84626,-54.09684
2018-03-12 06:30:00+00:00,312.6063,1.26,12.81,47.84626,-54.09684
2018-03-12 06:40:00+00:00,311.218,1.27,12.81,47.84626,-54.09684
2018-03-12 06:50:00+00:00,314.603,1.24,12.81,47.84626,-54.09684
2018-03-12 07:00:00+00:00,320.8997,1.2,12.81,47.84626,-54.09684
2018-03-12 07:10:00+00:00,320.868,1.24,12.73,47.84626,-54.09684
2018-03-12 07:20:00+00:00,317.4929,1.24,12.81,47.84626,-54.09684
2018-03-12 07:30:00+00:00,321.5747,1.2,12.81,47.84626,-54.09684
2018-03-12 07:40:00+00:00,326.368,1.22,12.81,47.84626,-54.09684
2018-03-12 07:50:00+00:00,325.1595,1.24,12.81,47.84626,-54.09684
2018-03-12 08:00:00+00:00,325.183,1.24,12.81,47.84626,-54.09684
2018-03-12 08:10:00+00:00,329.4446,1.27,12.73,47.84626,-54.09684
2018-03-12 08:20:00+00:00,327.9913,1.28,12.81,47.84626,-54.09684
2018-03-12 08:30:00+00:00,322.743,1.29,12.81,47.84626,-54.09684
2018-03-12 08:40:00+00:00,325.3513,1.29,12.81,47.84626,-54.09684
2018-03-12 08:50:00+00:00,326.8813,1.28,12.81,47.84626,-54.09684
2018-03-12 09:00:00+00:00,321.7513,1.28,12.73,47.84626,-54.09684
2018-03-12 09:10:00+00:00,315.908,1.24,12.73,47.84626,-54.09684
2018-03-12 09:20:00+00:00,319.398,1.23,12.81,47.84626,-54.09684
2018-03-12 09:30:00+00:00,319.038,1.26,12.81,47.84626,-54.09684
2018-03-12 09:40:00+00:00,311.7847,1.26,12.81,47.84626,-54.09684
2018-03-12 09:50:00+00:00,306.4496,1.24,12.81,47.84626,-54.09684
2018-03-12 10:00:00+00:00,305.1397,1.26,12.73,47.84626,-54.09684
2018-03-12 10:10:00+00:00,299.8947,1.26,12.73,47.84626,-54.09684
2018-03-12 10:20:00+00:00,293.1346,1.21,12.81,47.84626,-54.09684
2018-03-12 10:30:00+00:00,289.1314,1.21,12.81,47.84626,-54.09684
2018-03-12 10:40:00+00:00,284.5747,1.23,12.81,47.84626,-54.09684
2018-03-12 10:50:00+00:00,277.6364,1.2,12.89,47.84626,-54.09684
2018-03-12 11:00:00+00:00,273.8231,1.2,12.81,47.84626,-54.09684
2018-03-12 11:10:00+00:00,273.0747,1.26,12.81,47.84626,-54.09684
2018-03-12 11:20:00+00:00,268.0181,1.27,12.89,47.84626,-54.09684
2018-03-12 11:30:00+00:00,263.4964,1.27,12.89,47.84626,-54.09684
2018-03-12 11:40:00+00:00,262.5297,1.27,12.97,47.84626,-54.09684
2018-03-12 11:50:00+00:00,259.0531,1.26,13.05,47.84626,-54.09684
2018-03-12 12:00:00+00:00,251.1497,1.28,13.05,47.84626,-54.09684
2018-03-12 12:10:00+00:00,248.0831,1.28,12.97,47.84626,-54.09684
2018-03-12 12:20:00+00:00,249.3364,1.26,13.13,47.84626,-54.09684
2018-03-12 12:30:00+00:00,247.4448,1.28,13.21,47.84626,-54.09684
2018-03-12 12:40:00+00:00,243.5381,1.25,13.29,47.84626,-54.09684
2018-03-12 12:50:00+00:00,244.1731,1.28,13.29,47.84626,-54.09684
2018-03-12 13:00:00+00:00,243.4647,1.27,13.29,47.84626,-54.09684
2018-03-12 13:10:00+00:00,240.8597,1.2,13.29,47.84626,-54.09684
2018-03-12 13:20:00+00:00,239.2431,1.23,13.53,47.84626,-54.09684
2018-03-12 13:30:00+00:00,241.4881,1.25,13.68,47.84626,-54.09684
2018-03-12 13:40:00+00:00,241.8297,1.27,13.84,47.84626,-54.09684
2018-03-12 13:50:00+00:00,239.7114,1.27,14.0,47.84626,-54.09684
2018-03-12 14:00:00+00:00,239.0447,1.25,13.6,47.84626,-54.09684
2018-03-12 14:10:00+00:00,240.8798,1.26,13.37,47.84626,-54.09684
2018-03-12 14:20:00+00:00,240.4114,1.3,13.76,47.84626,-54.09684
2018-03-12 14:30:00+00:00,237.3247,1.3,13.76,47.84626,-54.09684
2018-03-12 14:40:00+00:00,236.1215,1.3,13.84,47.84626,-54.09684
2018-03-12 14:50:00+00:00,235.7781,1.3,13.84,47.84626,-54.09684
2018-03-12 15:00:00+00:00,233.7614,1.3,13.68,47.84626,-54.09684
2018-03-12 15:10:00+00:00,230.0598,1.3,13.53,47.84626,-54.09684
2018-03-12 15:20:00+00:00,228.7831,1.3,13.6,47.84626,-54.09684
2018-03-12 15:30:00+00:00,230.0981,1.3,13.6,47.84626,-54.09684
2018-03-12 15:40:00+00:00,231.1931,1.3,13.68,47.84626,-54.09684
2018-03-12 15:50:00+00:00,230.6764,1.3,13.68,47.84626,-54.09684
2018-03-12 16:00:00+00:00,230.9748,1.3,13.6,47.84626,-54.09684
2018-03-12 16:10:00+00:00,232.5148,1.3,13.37,47.84626,-54.09684
2018-03-12 16:20:00+00:00,234.7381,1.3,13.44,47.84626,-54.09684
2018-03-12 16:30:00+00:00,236.7798,1.3,13.44,47.84626,-54.09684
2018-03-12 16:40:00+00:00,239.5397,1.3,13.53,47.84626,-54.09684
2018-03-12 16:50:00+00:00,242.7897,1.3,13.53,47.84626,-54.09684
2018-03-12 17:00:00+00:00,244.0331,1.31,13.37,47.84626,-54.09684
2018-03-12 17:10:00+00:00,245.898,1.34,13.29,47.84626,-54.09684
2018-03-12 17:20:00+00:00,250.8148,1.36,13.37,47.84626,-54.09684
2018-03-12 17:30:00+00:00,258.0447,1.36,13.37,47.84626,-54.09684
2018-03-12 17:40:00+00:00,261.9047,1.37,13.44,47.84626,-54.09684
2018-03-12 17:50:00+00:00,262.6264,1.39,13.44,47.84626,-54.09684
2018-03-12 18:00:00+00:00,266.2664,1.39,13.37,47.84626,-54.09684
2018-03-12 18:10:00+00:00,271.3997,1.4,13.21,47.84626,-54.09684
2018-03-12 18:20:00+00:00,271.1097,1.4,13.29,47.84626,-54.09684
2018-03-12 18:30:00+00:00,272.9898,1.4,13.29,47.84626,-54.09684
2018-03-12 18:40:00+00:00,278.2031,1.4,13.29,47.84626,-54.09684
2018-03-12 18:50:00+00:00,281.5997,1.4,13.37,47.84626,-54.09684
2018-03-12 19:00:00+00:00,281.863,1.4,13.29,47.84626,-54.09684
2018-03-12 19:10:00+00:00,285.248,1.4,13.21,47.84626,-54.09684
2018-03-12 19:20:00+00:00,289.1398,1.4,13.29,47.84626,-54.09684
2018-03-12 19:30:00+00:00,288.9264,1.4,13.29,47.84626,-54.09684
2018-03-12 19:40:00+00:00,288.1047,1.4,13.29,47.84626,-54.09684
2018-03-12 19:50:00+00:00,292.3814,1.4,13.29,47.84626,-54.09684
2018-03-12 20:00:00+00:00,293.7647,1.4,13.21,47.84626,-54.09684
2018-03-12 20:10:00+00:00,293.7047,1.4,13.05,47.84626,-54.09684
2018-03-12 20:20:00+00:00,295.7414,1.4,13.13,47.84626,-54.09684
2018-03-12 20:30:00+00:00,299.0663,1.4,13.13,47.84626,-54.09684
2018-03-12 20:40:00+00:00,300.2714,1.4,13.13,47.84626,-54.09684
2018-03-12 20:50:00+00:00,300.138,1.4,13.13,47.84626,-54.09684
2018-03-12 21:00:00+00:00,298.738,1.4,13.05,47.84626,-54.09684
2018-03-12 21:10:00+00:00,297.3164,1.4,12.97,47.84626,-54.09684
2018-03-12 21:20:00+00:00,297.043,1.4,12.97,47.84626,-54.09684
2018-03-12 21:30:00+00:00,297.1547,1.4,12.97,47.84626,-54.09684
2018-03-12 21:40:00+00:00,293.5247,1.4,12.97,47.84626,-54.09684
2018-03-12 21:50:00+00:00,289.553,1.4,13.05,47.84626,-54.09684
2018-03-12 22:00:00+00:00,287.8697,1.4,12.97,47.84626,-54.09684
2018-03-12 22:10:00+00:00,285.3181,1.4,12.89,47.84626,-54.09684
2018-03-12 22:20:00+00:00,280.6964,1.4,12.97,47.84626,-54.09684
2018-03-12 22:30:00+00:00,279.2814,1.4,12.97,47.84626,-54.09684
2018-03-12 22:40:00+00:00,277.6697,1.4,12.97,47.84626,-54.09684
2018-03-12 22:50:00+00:00,271.0648,1.4,12.97,47.84626,-54.09684
2018-03-12 23:00:00+00:00,266.4564,1.4,12.89,47.84626,-54.09684
2018-03-12 23:10:00+00:00,266.1848,1.4,12.81,47.84626,-54.09684
2018-03-12 23:20:00+00:00,261.2681,1.4,12.97,47.84626,-54.09684
2018-03-12 23:30:00+00:00,253.4098,1.4,12.97,47.84626,-54.09684
2018-03-12 23:40:00+00:00,251.8297,1.4,12.97,47.84626,-54.09684
2018-03-12 23:50:00+00:00,251.6081,1.4,12.97,47.84626,-54.09684
